IZ2XCK-13 Weather Reports


time (UTC)temp
C
wind
direction
speed
KPH
gust
KPH
rain 1hr
cm
rain 24hr
cm
rain mn
cm
humidity
%
barometer
mb
20260507034457 10 0.0 0.0 0.00 0.00 0.00 87 1013.4
20260507032457 10 0.0 0.0 0.00 0.00 0.00 87 1013.2
20260507030457 10 0.0 0.0 0.00 0.00 0.00 86 1013.2
20260507024457 10 0.0 0.0 0.00 0.00 0.00 86 1013.1
20260507022456 10 0.0 0.0 0.00 0.00 0.00 83 1013.2
20260507020456 10 0.0 0.0 0.00 0.00 0.00 87 1013.2
20260507014456 10 0.0 0.0 0.00 0.00 0.00 82 1013.0
20260507012455 10 0.0 0.0 0.00 0.00 0.00 84 1012.9
20260507010455 10 0.0 0.0 0.00 0.00 0.00 88 1013.1
20260507004455 10 0.0 0.0 0.00 0.00 0.00 91 1013.5
20260507002454 10 0.0 0.0 0.00 0.00 0.00 87 1012.9
20260507000454 10 0.0 0.0 0.00 0.00 0.00 90 1012.9
20260506234454 10 0.0 0.0 0.00 0.00 0.00 95 1013.1
20260506232453 10 0.0 0.0 0.00 0.00 0.00 85 1013.1
20260506230453 11 0.0 0.0 0.00 0.00 0.00 83 1013.2
20260506224453 10 0.0 0.0 0.00 0.00 0.00 90 1013.5
20260506222452 11 0.0 0.0 0.00 0.00 0.00 84 1013.5
20260506220452 10 0.0 0.0 0.00 0.00 0.00 86 1013.1
20260506214452 11 0.0 0.0 0.00 0.00 0.00 80 1013.0
20260506212451 10 0.0 0.0 0.00 0.00 0.00 81 1013.2
20260506210451 11 0.0 0.0 0.00 0.00 0.00 80 1013.2
20260506204451 10 0.0 0.0 0.00 0.00 0.00 84 1013.1
20260506202451 10 0.0 0.0 0.00 0.00 0.00 83 1013.2
20260506200450 10 0.0 0.0 0.00 0.00 0.00 85 1013.0
20260506194450 11 0.0 0.0 0.00 0.00 0.00 82 1012.8
20260506192555 10 0.0 0.0 0.00 0.00 0.00 90 1013.3
20260506184553 11 0.0 0.0 0.00 0.00 0.00 94 1013.0
20260506182552 12 0.0 0.0 0.00 0.00 0.00 88 1011.9
20260506180552 12 0.0 0.0 0.00 0.00 0.00 94 1011.2
20260506174552 12 0.0 0.0 0.00 0.00 0.00 89 1010.9
20260506172551 13 0.0 0.0 0.00 0.00 0.00 85 1010.6
20260506170551 12 0.0 0.0 0.00 0.00 0.00 93 1010.2
20260506164551 13 0.0 0.0 0.00 0.00 0.00 83 1009.4
20260506162551 13 0.0 0.0 0.00 0.00 0.00 82 1009.2
20260506160550 13 0.0 0.0 0.00 0.00 0.00 84 1009.1
20260506154550 14 0.0 0.0 0.00 0.00 0.00 80 1009.4
20260506152549 14 0.0 0.0 0.00 0.00 0.00 77 1009.4
20260506150549 13 0.0 0.0 0.00 0.00 0.00 86 1009.9
20260506144549 16 0.0 0.0 0.00 0.00 0.00 74 1010.1
20260506142549 13 0.0 0.0 0.00 0.00 0.00 90 1010.5
20260506140548 13 0.0 0.0 0.00 0.00 0.00 90 1010.6
20260506134548 14 0.0 0.0 0.00 0.00 0.00 84 1010.7
20260506132548 12 0.0 0.0 0.00 0.00 0.00 96 1010.8
20260506130547 14 0.0 0.0 0.00 0.00 0.00 91 1011.2
20260506124547 11 0.0 0.0 0.00 0.00 0.00 99 1011.5
20260506122547 11 0.0 0.0 0.00 0.00 0.00 98 1011.7
20260506120546 11 0.0 0.0 0.00 0.00 0.00 99 1011.8
20260506114546 12 0.0 0.0 0.00 0.00 0.00 94 1011.9
20260506112546 11 0.0 0.0 0.00 0.00 0.00 99 1011.7
20260506110545 12 0.0 0.0 0.00 0.00 0.00 78 1011.3
20260506104545 12 0.0 0.0 0.00 0.00 0.00 83 1011.6
20260506102545 11 0.0 0.0 0.00 0.00 0.00 99 1011.5
20260506100545 12 0.0 0.0 0.00 0.00 0.00 99 1010.6
20260506094544 12 0.0 0.0 0.00 0.00 0.00 99 1010.7
20260506092544 12 0.0 0.0 0.00 0.00 0.00 94 1011.3
20260506090544 11 0.0 0.0 0.00 0.00 0.00 89 1011.3
20260506084543 12 0.0 0.0 0.00 0.00 0.00 97 1011.3
20260506082543 11 0.0 0.0 0.00 0.00 0.00 99 1011.5
20260506080543 12 0.0 0.0 0.00 0.00 0.00 99 1011.4
20260506072542 11 0.0 0.0 0.00 0.00 0.00 99 1012.0
20260506070542 12 0.0 0.0 0.00 0.00 0.00 96 1012.1
20260506060541 12 0.0 0.0 0.00 0.00 0.00 91 1011.9
20260506050540 12 0.0 0.0 0.00 0.00 0.00 99 1012.3
20260506044540 11 0.0 0.0 0.00 0.00 0.00 99 1012.1
20260506042539 12 0.0 0.0 0.00 0.00 0.00 99 1011.6
20260506040539 12 0.0 0.0 0.00 0.00 0.00 98 1011.4